Flag for U.S.A. Weather past 2 weeks in Citrus Heights, California, U.S.A.

Now
72 °F

Clear.


Feels Like: 77 °F
Forecast: 63 / 100 °F
Wind: 3 mph from Southeast

Location: Mather Field

Current Time: Jul 25, 2014 at 12:48:16 AM

Latest Report: Jul 24, 2014 at 11:45 PM


Visibility: 10 mi

Pressure: 29.81 "Hg

Humidity: 50%

Dew point: 52 °F

Location of Citrus HeightsLocation

Historic Weather in Citrus Heights — Graph

°F

Citrus Heights temperature yesterday

Maximum temperature yesterday: 95 °F (at 5:45 PM)
Minimum temperature yesterday: 59 °F (at 2:47 AM)
Average temperature yesterday: 77 °F

Past Weeks' High & Low Weather Summary

 TemperatureHumidityPressure
High106 °F (Jul 14, 3:55 PM)100% (Jul 10, 3:48 AM)30.13 "Hg (Jul 10, 3:48 AM)
Low55 °F (Jul 23, 5:46 AM)13% (Jul 24, 7:50 PM)29.78 "Hg (Jul 24, 7:50 PM)
Average74 °F57%29.94 "Hg
* Reported Jul 9 10:50 PM — Jul 24 10:45 PM, Citrus Heights, Weather by CustomWeather, © 2014

Note: Actual official high and low records may vary slightly from our data, if they occured in-between our weather recording intervals... More about our weather records

Advertising

Citrus Heights weather history for previous 24 hours

 ConditionsComfort  
Time TempWeatherWind HumidityBarometerVisibility
10:45 PM
Jul 24
75 °FClear.5 mph44%29.81 "Hg10 mi
9:45 PM77 °FClear.7 mph32%29.80 "Hg10 mi
8:45 PM82 °FSunny.3 mph19%29.79 "Hg10 mi
7:50 PM91 °FSunny.5 mph13%29.78 "Hg10 mi
6:47 PM93 °FPassing clouds.5 mph14%29.79 "Hg10 mi
5:45 PM95 °FPassing clouds.6 mph14%29.80 "Hg10 mi
3:48 PM93 °FPassing clouds.15 mph21%29.84 "Hg10 mi
2:50 PM93 °FPassing clouds.10 mph23%29.86 "Hg10 mi
1:45 PM91 °FSunny.10 mph24%29.89 "Hg10 mi
11:56 AM84 °FSunny.10 mph35%29.94 "Hg10 mi
10:45 AM81 °FSunny.6 mph42%29.97 "Hg10 mi
9:45 AM77 °FSunny.8 mph47%29.98 "Hg10 mi
8:45 AM72 °FSunny.3 mph61%30.00 "Hg10 mi
7:55 AM66 °FSunny.No wind73%29.99 "Hg10 mi
6:45 AM59 °FClear.No wind100%29.98 "Hg10 mi
5:50 AM59 °FClear.3 mph94%29.98 "Hg10 mi
4:50 AM59 °FClear.No wind94%29.98 "Hg10 mi
3:54 AM59 °FClear.5 mph94%29.98 "Hg10 mi
2:47 AM59 °FClear.3 mph88%29.99 "Hg10 mi
Weather by CustomWeather, © 2014

See weather overviewHow to use our weather pages